Fort Leonard Wood, MO

12:49 PM CDT on October 20, 2019 (GMT -0500)
Waynesville Regional At Forney Field

Weather History for KTBN - May, 2019

Change the Weather History Date:

Sunday, May 5, 2019

  Actual Average Record
Temperature  
Mean Temperature 58 °F -  
Max Temperature 75 °F 72 °F 94 °F (2014)
Min Temperature 42 °F 54 °F 38 °F (2013)
Degree Days  
Heating Degree Days 6    
Growing Degree Days 8 (Base 50)    
Moisture  
Dew Point 46 °F    
Average Humidity 67    
Maximum Humidity 98    
Minimum Humidity 34    
Precipitation  
Precipitation 0.00 in - - ()
Sea Level Pressure  
Sea Level Pressure 29.92 in    
Wind  
Wind Speed 2 mph (SE)    
Max Wind Speed 7 mph    
Max Gust Speed -    
Visibility 10 miles    
Events      
Averages and records for this station are not official NWS values.
T = Trace of Precipitation, MM = Missing Value Source: NWS Daily Summary

Daily Weather History Graph

Daily Weather History Graph

Search for Another Location

Airport or City:

Astronomy

May. 05, 2019 Rise Set
Actual Time 6:08 AM CDT 8:02 PM CDT
Civil Twilight 5:40 AM CDT 8:31 PM CDT
Nautical Twilight 5:05 AM CDT 9:05 PM CDT
Astronomical Twilight 4:28 AM CDT 9:43 PM CDT
Moon 6:52 AM CDT (5/5) 8:56 PM CDT (5/5)
Length of Visible Light 14h 50m
Length of Day
13h 53m
New Moon, 1% of the Moon is Illuminated
May 5
New Moon
May 11
First Quarter
May 18
Full
May 26
Last Quarter
Jun 3
New

Hourly Weather History & Observations

Time (CDT) Temp. Windchill Dew Point Humidity Pressure Visibility Wind Dir Wind Speed Gust Speed Precip Events Conditions
12:56 AM 47.1 °F - 46.2 °F 97% 29.92 in 10.0 mi Calm Calm - N/A   Clear
1:56 AM 47.1 °F - 46.2 °F 97% 29.92 in 10.0 mi Calm Calm - N/A   Clear
2:56 AM 45.0 °F - 44.2 °F 97% 29.93 in 10.0 mi Calm Calm - N/A   Clear
3:56 AM 43.0 °F - 42.3 °F 97% 29.92 in 10.0 mi Calm Calm - N/A   Clear
4:56 AM 42.8 °F - 42.1 °F 97% 29.92 in 10.0 mi Calm Calm - N/A   Clear
5:56 AM 42.1 °F - 41.4 °F 97% 29.93 in 10.0 mi Calm Calm - N/A   Clear
6:56 AM 45.1 °F - 44.6 °F 98% 29.93 in 10.0 mi Calm Calm - N/A   Clear
7:05 AM 46.4 °F 45.2 °F 44.6 °F 93% 29.92 in 10.0 mi ESE 3.5 mph - N/A   Clear
7:56 AM 50.2 °F - 49.3 °F 97% 29.96 in 9.0 mi SW 3.5 mph - N/A   Clear
8:56 AM 55.4 °F - 50.7 °F 84% 29.97 in 10.0 mi Calm Calm - N/A   Clear
9:56 AM 61.0 °F - 50.0 °F 67% 29.95 in 10.0 mi East 4.6 mph - N/A   Clear
10:56 AM 62.8 °F - 46.8 °F 56% 29.98 in 10.0 mi ESE 4.6 mph - N/A   Partly Cloudy
11:56 AM 64.9 °F - 44.8 °F 48% 29.98 in 10.0 mi Calm Calm - N/A   Partly Cloudy
12:56 PM 67.5 °F - 45.3 °F 45% 29.94 in 10.0 mi Calm Calm - N/A   Clear
1:56 PM 70.7 °F - 43.2 °F 37% 29.93 in 10.0 mi Calm Calm - N/A   Partly Cloudy
2:56 PM 72.3 °F - 42.4 °F 34% 29.91 in 10.0 mi ESE 3.5 mph - N/A   Clear
3:56 PM 73.8 °F - 45.1 °F 36% 29.89 in 10.0 mi Calm Calm - N/A   Clear
4:56 PM 73.9 °F - 46.0 °F 37% 29.89 in 10.0 mi SE 5.8 mph - N/A   Clear
5:56 PM 74.3 °F - 45.7 °F 36% 29.88 in 10.0 mi South 5.8 mph - N/A   Clear
6:04 PM 75.2 °F - 46.4 °F 36% 29.88 in 10.0 mi South 6.9 mph - N/A   Clear
6:56 PM 72.5 °F - 47.5 °F 41% 29.88 in 9.0 mi SSE 6.9 mph - N/A   Clear
7:56 PM 66.6 °F - 51.3 °F 58% 29.86 in 10.0 mi SE 5.8 mph - N/A   Clear
8:56 PM 62.2 °F - 49.8 °F 64% 29.87 in 10.0 mi SE 6.9 mph - N/A   Clear
9:56 PM 60.1 °F - 48.7 °F 66% 29.91 in 10.0 mi SE 6.9 mph - N/A   Clear
10:56 PM 58.3 °F - 48.9 °F 71% 29.92 in 10.0 mi SSE 5.8 mph - N/A   Clear